CW2931 Weather Reports


Display with metric or nautical units.
time (UTC)temp
F
wind
direction
speed
MPH
gust
MPH
rain 1hr
in
rain 24hr
in
rain mn
in
humidity
%
barometer
mb
20260902032604 78 254 0.0 0.0 0.00 0.00 0.00 82 1012.9
20260902031104 78 254 0.0 0.0 0.00 0.00 0.00 82 1012.8
20260902030605 78 254 0.0 0.0 0.00 0.00 0.00 81 1012.8
20260902030105 78 254 0.0 0.0 0.00 0.00 0.00 81 1012.9
20260902025605 79 254 0.0 0.0 0.00 0.00 0.00 80 1012.8
20260902025105 79 254 0.0 0.0 0.00 0.00 0.00 80 1012.6
20260902024105 79 254 0.0 0.0 0.00 0.00 0.00 80 1012.6
20260902023605 79 254 0.0 0.0 0.00 0.00 0.00 80 1012.5
20260902023105 79 254 0.0 0.0 0.00 0.00 0.00 80 1012.6
20260902022605 80 254 0.0 0.0 0.00 0.00 0.00 80 1012.7
20260902021604 80 253 0.0 0.0 0.00 0.00 0.00 80 1012.7
20260902021104 80 250 0.0 0.0 0.00 0.00 0.00 80 1012.7
20260902020604 80 248 0.0 0.0 0.00 0.00 0.00 80 1012.7
20260902020104 80 246 0.0 0.0 0.00 0.00 0.00 80 1012.8
20260902015604 80 244 0.0 0.0 0.00 0.00 0.00 80 1012.9
20260902015105 80 244 0.0 0.0 0.00 0.00 0.00 80 1012.9
20260902014605 80 244 0.0 0.0 0.00 0.00 0.00 79 1013.0
20260902013604 81 239 0.0 0.0 0.00 0.00 0.00 79 1013.0
20260902013105 81 241 0.0 0.0 0.00 0.00 0.00 79 1013.1
20260902012604 81 229 0.0 0.0 0.00 0.00 0.00 79 1013.0
20260902012104 81 216 0.0 0.0 0.00 0.00 0.00 79 1013.0
20260902011605 81 215 0.0 0.0 0.00 0.00 0.00 78 1012.9
20260902011104 81 241 0.0 0.0 0.00 0.00 0.00 78 1012.9
20260902010605 81 228 0.0 0.0 0.00 0.00 0.00 78 1012.8
20260902010105 82 213 0.0 0.0 0.00 0.00 0.00 78 1012.7
20260902005604 82 240 0.0 0.0 0.00 0.00 0.00 78 1012.6
20260902005104 82 245 0.0 0.0 0.00 0.00 0.00 78 1012.5
20260902004105 82 236 0.0 0.0 0.00 0.00 0.00 77 1012.4
20260902003605 82 233 0.0 0.0 0.00 0.00 0.00 78 1012.4
20260902003105 82 238 0.0 0.0 0.00 0.00 0.00 77 1012.4
20260902002604 82 252 0.0 0.0 0.00 0.00 0.00 77 1012.4
20260902002105 82 233 0.0 0.0 0.00 0.00 0.00 77 1012.4
20260902001104 83 239 0.0 0.0 0.00 0.00 0.00 77 1012.4
20260902000605 83 247 0.0 0.0 0.00 0.00 0.00 76 1012.5
20260901235604 83 241 0.0 0.0 0.00 0.00 0.00 76 1012.5
20260901235104 83 250 0.0 0.0 0.00 0.00 0.00 75 1012.4
20260901234604 84 229 0.0 0.0 0.00 0.00 0.00 75 1012.4
20260901234105 84 252 0.0 0.0 0.00 0.00 0.00 75 1012.4
20260901233104 84 232 0.0 0.0 0.00 0.01 0.00 74 1012.4
20260901232605 85 233 0.0 0.0 0.00 0.01 0.00 74 1012.4
20260901232104 85 213 0.0 0.0 0.00 0.01 0.00 73 1012.4
20260901231104 86 232 0.0 0.0 0.00 0.01 0.00 72 1012.4
20260901230605 86 235 0.0 0.0 0.00 0.01 0.00 71 1012.5
20260901230104 86 246 0.0 0.0 0.00 0.01 0.00 71 1012.5
20260901225604 87 271 0.0 0.0 0.00 0.01 0.00 71 1012.6
20260901224604 87 260 0.0 3.0 0.00 0.02 0.00 71 1012.6
20260901224104 87 268 3.0 6.0 0.00 0.02 0.00 71 1012.6
20260901223605 87 237 3.0 12.0 0.00 0.02 0.00 71 1012.5
20260901223105 87 242 3.0 7.0 0.00 0.02 0.00 72 1012.5
20260901222605 87 249 4.0 13.0 0.00 0.02 0.00 72 1012.5
20260901221604 87 205 3.0 7.0 0.00 0.03 0.00 73 1012.4
20260901221104 87 203 2.0 7.0 0.00 0.03 0.00 73 1012.4
20260901220605 87 188 3.0 10.0 0.00 0.03 0.00 72 1012.4
20260901215604 88 202 3.0 12.0 0.00 0.04 0.00 72 1012.3
20260901215105 88 238 3.0 9.0 0.00 0.04 0.00 72 1012.2
20260901214606 88 211 5.0 9.0 0.00 0.05 0.00 72 1012.2
20260901214104 89 210 3.0 9.0 0.00 0.05 0.00 72 1012.3
20260901213604 89 192 3.0 10.0 0.00 0.06 0.00 72 1012.3
20260901213104 88 203 5.0 12.0 0.00 0.06 0.00 72 1012.3
20260901212604 88 203 3.0 10.0 0.00 0.06 0.00 71 1012.2
20260901212104 89 239 5.0 9.0 0.00 0.06 0.00 71 1012.2
20260901211605 89 227 1.0 6.0 0.00 0.06 0.00 70 1012.2
20260901211104 89 245 0.0 0.0 0.00 0.06 0.00 69 1012.2
20260901210604 90 236 0.0 0.0 0.00 0.06 0.00 69 1012.2
20260901210104 90 294 0.0 0.0 0.00 0.06 0.00 68 1012.3
20260901205604 90 258 0.0 0.0 0.00 0.06 0.00 67 1012.3
20260901205104 90 251 0.0 0.0 0.00 0.06 0.00 68 1012.4
20260901204604 90 208 1.0 13.0 0.00 0.06 0.00 68 1012.3
20260901204104 90 240 5.0 12.0 0.00 0.06 0.00 68 1012.4
20260901203604 90 240 5.0 12.0 0.00 0.06 0.00 68 1012.4
20260901203105 90 236 3.0 12.0 0.00 0.06 0.00 67 1012.3
20260901202606 91 239 5.0 13.0 0.00 0.06 0.00 67 1012.3
20260901202105 91 235 5.0 12.0 0.00 0.06 0.00 67 1012.4
20260901201104 91 242 6.0 12.0 0.00 0.06 0.00 68 1012.4
20260901200604 90 219 5.0 10.0 0.00 0.06 0.00 68 1012.4
20260901200104 90 200 4.0 10.0 0.00 0.06 0.00 68 1012.4
20260901195104 89 216 3.0 10.0 0.00 0.06 0.00 70 1012.4
20260901194604 89 233 5.0 13.0 0.00 0.06 0.00 69 1012.4
20260901193604 89 244 6.0 13.0 0.00 0.06 0.00 68 1012.4
20260901193104 90 231 5.0 10.0 0.00 0.06 0.00 67 1012.4
20260901192104 90 242 5.0 10.0 0.00 0.06 0.00 64 1012.6
20260901191604 91 246 6.0 15.0 0.00 0.06 0.00 63 1012.7
20260901191104 91 229 6.0 16.0 0.00 0.06 0.00 62 1012.7
20260901190604 92 248 2.0 10.0 0.00 0.06 0.00 62 1012.6
20260901190104 92 240 3.0 12.0 0.00 0.06 0.00 62 1012.6
20260901185604 91 237 3.0 6.0 0.00 0.06 0.00 63 1012.6
20260901185104 91 268 2.0 5.0 0.00 0.06 0.00 63 1012.4
20260901184606 91 249 2.0 10.0 0.00 0.06 0.00 65 1012.4
20260901184104 91 215 3.0 6.0 0.00 0.06 0.00 65 1012.4
20260901183604 91 248 3.0 7.0 0.00 0.06 0.00 65 1012.4
20260901183104 91 229 5.0 9.0 0.00 0.06 0.00 65 1012.2
20260901182104 92 200 5.0 10.0 0.00 0.06 0.00 64 1012.2
20260901181604 92 200 4.0 9.0 0.00 0.06 0.00 64 1012.1
20260901181104 92 228 3.0 6.0 0.00 0.06 0.00 63 1012.0
20260901180604 91 252 2.0 6.0 0.00 0.06 0.00 63 1012.1
20260901180104 91 260 2.0 5.0 0.00 0.06 0.00 64 1012.1
20260901175604 91 220 4.0 9.0 0.00 0.06 0.00 63 1012.0
20260901175104 91 215 5.0 10.0 0.00 0.06 0.00 63 1012.0
20260901174604 91 237 5.0 10.0 0.00 0.06 0.00 63 1012.1
20260901174104 91 239 5.0 12.0 0.00 0.06 0.00 62 1012.2
20260901173604 91 215 3.0 10.0 0.00 0.06 0.00 63 1012.4
20260901173104 91 230 3.0 8.0 0.00 0.06 0.00 64 1012.4
20260901172604 90 270 4.0 7.0 0.00 0.06 0.00 64 1012.4
20260901172104 90 282 2.0 5.0 0.00 0.06 0.00 65 1012.4
20260901171604 90 257 1.0 5.0 0.00 0.06 0.00 66 1012.4
20260901171104 90 260 1.0 3.0 0.00 0.06 0.00 68 1012.5
20260901170604 89 260 2.0 9.0 0.00 0.06 0.00 67 1012.6
20260901170104 89 249 3.0 3.0 0.00 0.06 0.00 67 1012.7
20260901165604 89 218 2.0 3.0 0.00 0.06 0.00 68 1012.8
20260901164604 88 256 3.0 6.0 0.00 0.06 0.00 69 1013.0
20260901164104 88 190 3.0 9.0 0.00 0.06 0.00 69 1013.0
20260901163604 87 254 2.0 6.0 0.00 0.06 0.00 70 1013.1
20260901163103 87 248 1.0 5.0 0.00 0.06 0.00 70 1013.1
20260901161604 87 249 0.0 0.0 0.00 0.06 0.00 69 1013.3
20260901161104 87 223 0.0 0.0 0.00 0.06 0.00 70 1013.4
20260901160604 87 235 0.0 0.0 0.00 0.06 0.00 72 1013.4
20260901160104 86 242 0.0 0.0 0.00 0.06 0.00 70 1013.3
20260901155604 86 210 0.0 0.0 0.00 0.06 0.00 72 1013.2
20260901155104 86 247 0.0 0.0 0.00 0.06 0.00 72 1013.4
20260901154604 85 251 0.0 0.0 0.00 0.06 0.00 73 1013.5
20260901154104 85 259 0.0 0.0 0.00 0.06 0.00 73 1013.5
20260901153604 85 238 0.0 0.0 0.00 0.06 0.00 73 1013.5
20260901153104 85 245 0.0 0.0 0.00 0.06 0.00 74 1013.5
20260901152604 85 238 0.0 0.0 0.00 0.06 0.00 75 1013.6
20260901152104 84 234 0.0 0.0 0.00 0.06 0.00 77 1013.6
20260901151604 83 244 0.0 0.0 0.00 0.06 0.00 77 1013.6
20260901151104 83 216 0.0 0.0 0.00 0.06 0.00 78 1013.6
20260901150604 82 255 0.0 0.0 0.00 0.06 0.00 80 1013.6
20260901150104 82 168 0.0 0.0 0.00 0.06 0.00 80 1013.7
20260901145604 81 238 0.0 0.0 0.00 0.06 0.00 81 1013.8
20260901144604 80 256 0.0 0.0 0.00 0.06 0.00 82 1013.9
20260901144103 80 225 0.0 0.0 0.00 0.06 0.00 83 1013.9
20260901143604 80 248 0.0 0.0 0.00 0.06 0.00 83 1013.9
20260901143104 79 244 0.0 0.0 0.00 0.06 0.00 85 1014.0
20260901142604 79 261 0.0 0.0 0.00 0.06 0.00 85 1014.0
20260901141104 78 243 0.0 0.0 0.00 0.06 0.00 86 1014.0
20260901140604 78 250 0.0 0.0 0.00 0.06 0.00 87 1013.8
20260901140104 78 242 0.0 0.0 0.00 0.06 0.00 87 1013.6
20260901135604 77 240 0.0 0.0 0.00 0.06 0.00 87 1013.5
20260901135103 77 237 0.0 0.0 0.00 0.06 0.00 87 1013.5
20260901134104 77 264 0.0 0.0 0.00 0.06 0.00 88 1013.3
20260901133605 77 259 1.0 5.0 0.00 0.06 0.00 88 1013.1
20260901133103 76 251 0.0 2.0 0.00 0.06 0.00 89 1013.1
20260901132604 76 251 0.0 2.0 0.00 0.06 0.00 89 1013.1
20260901132104 76 251 1.0 3.0 0.00 0.06 0.00 89 1013.2
20260901131604 76 249 0.0 3.0 0.00 0.06 0.00 89 1013.1
20260901131104 76 245 0.0 0.0 0.00 0.06 0.00 89 1013.1
20260901130603 76 241 0.0 0.0 0.00 0.06 0.00 89 1013.2
20260901130104 76 248 0.0 0.0 0.00 0.06 0.00 89 1013.4
20260901125604 76 237 0.0 3.0 0.00 0.06 0.00 90 1013.4
20260901125104 76 254 1.0 3.0 0.00 0.06 0.00 90 1013.5
20260901124104 76 203 2.0 3.0 0.00 0.06 0.00 90 1013.5
20260901123604 75 239 2.0 3.0 0.00 0.06 0.00 90 1013.6
20260901123104 75 186 1.0 3.0 0.00 0.06 0.00 90 1013.6
20260901122604 75 243 3.0 6.0 0.00 0.06 0.00 90 1013.7
20260901122104 75 236 2.0 5.0 0.00 0.06 0.00 90 1013.7
20260901121604 75 246 1.0 5.0 0.00 0.06 0.00 90 1013.7
20260901121104 75 241 1.0 5.0 0.00 0.06 0.00 90 1013.6
20260901120103 75 239 2.0 5.0 0.00 0.06 0.00 90 1013.6
20260901115603 75 259 0.0 3.0 0.00 0.06 0.00 90 1013.6
20260901115104 75 259 2.0 3.0 0.00 0.06 0.00 90 1013.6
20260901114604 75 257 1.0 3.0 0.00 0.06 0.00 90 1013.4
20260901114104 75 248 2.0 3.0 0.00 0.06 0.00 90 1013.2
20260901113604 75 240 1.0 3.0 0.00 0.06 0.00 89 1013.2
20260901113104 75 261 0.0 3.0 0.00 0.06 0.00 89 1013.1
20260901112604 75 261 1.0 3.0 0.00 0.06 0.00 89 1013.1
20260901112103 75 261 2.0 3.0 0.00 0.06 0.00 89 1013.1
20260901111606 75 246 1.0 3.0 0.00 0.06 0.00 89 1013.0
20260901111103 75 242 1.0 3.0 0.00 0.06 0.00 89 1013.1
20260901110604 75 242 2.0 3.0 0.00 0.06 0.00 89 1013.1
20260901105604 75 258 2.0 3.0 0.00 0.06 0.00 89 1013.1
20260901105104 75 252 2.0 3.0 0.00 0.06 0.00 88 1013.1
20260901104604 76 241 1.0 3.0 0.00 0.06 0.00 88 1013.1
20260901104103 76 239 2.0 3.0 0.00 0.06 0.00 89 1013.0
20260901103603 76 241 2.0 5.0 0.00 0.06 0.00 88 1012.9
20260901103103 76 250 1.0 3.0 0.00 0.06 0.00 88 1012.8
20260901102604 76 254 1.0 3.0 0.00 0.06 0.00 88 1012.9
20260901102104 76 249 1.0 3.0 0.00 0.06 0.00 88 1013.0
20260901101604 76 248 1.0 3.0 0.00 0.06 0.00 88 1013.0
20260901101104 76 249 3.0 3.0 0.00 0.06 0.00 88 1013.0
20260901100603 76 231 1.0 8.0 0.00 0.06 0.00 88 1012.9
20260901100104 76 230 3.0 5.0 0.00 0.06 0.00 88 1012.9
20260901095604 76 234 1.0 5.0 0.00 0.06 0.00 88 1012.9
20260901095104 76 259 2.0 5.0 0.00 0.06 0.00 88 1012.9
20260901094604 76 226 3.0 5.0 0.00 0.06 0.00 88 1013.0
20260901094104 76 241 2.0 6.0 0.00 0.06 0.00 88 1013.0
20260901093604 76 239 2.0 5.0 0.00 0.06 0.00 88 1012.9
20260901093105 76 254 2.0 7.0 0.00 0.06 0.00 88 1012.9
20260901092603 76 224 2.0 5.0 0.00 0.06 0.00 88 1012.8
20260901092103 76 257 2.0 6.0 0.00 0.06 0.00 89 1012.6
20260901091604 76 240 3.0 5.0 0.00 0.06 0.00 89 1012.5
20260901091104 76 226 4.0 7.0 0.00 0.06 0.00 89 1012.5
20260901090104 76 239 3.0 6.0 0.00 0.06 0.00 89 1012.5
20260901085604 76 238 2.0 7.0 0.00 0.06 0.00 89 1012.5
20260901085104 76 244 4.0 10.0 0.00 0.06 0.00 89 1012.5
20260901084603 76 243 2.0 6.0 0.00 0.06 0.00 90 1012.5
20260901084104 76 252 2.0 5.0 0.00 0.06 0.00 90 1012.5
20260901083603 76 249 1.0 5.0 0.00 0.06 0.00 90 1012.5
20260901083103 76 256 2.0 5.0 0.00 0.06 0.00 90 1012.5
20260901081604 76 226 2.0 5.0 0.00 0.06 0.00 90 1012.5
20260901080604 76 240 2.0 6.0 0.00 0.06 0.00 90 1012.5
20260901080103 76 234 2.0 3.0 0.00 0.06 0.00 90 1012.5
20260901075104 75 256 1.0 5.0 0.00 0.06 0.00 90 1012.6
20260901074604 75 253 1.0 3.0 0.00 0.06 0.00 89 1012.5
20260901074103 75 238 1.0 3.0 0.00 0.06 0.00 89 1012.6
20260901073603 75 225 1.0 3.0 0.00 0.06 0.00 89 1012.6
20260901073103 75 247 1.0 3.0 0.00 0.06 0.00 89 1012.6
20260901072603 75 254 1.0 3.0 0.00 0.06 0.00 89 1012.6
20260901072104 75 254 0.0 1.0 0.00 0.06 0.00 89 1012.6
20260901071607 75 254 0.0 1.0 0.00 0.06 0.00 89 1012.6
20260901071103 75 254 1.0 3.0 0.00 0.06 0.00 89 1012.6
20260901070603 76 254 1.0 2.0 0.00 0.06 0.00 89 1012.6
20260901070104 76 253 1.0 2.0 0.00 0.06 0.00 89 1012.6
20260901065604 76 253 1.0 3.0 0.00 0.06 0.00 89 1012.6
20260901065104 76 247 1.0 2.0 0.00 0.06 0.00 89 1012.6
20260901064604 76 247 1.0 2.0 0.00 0.06 0.00 89 1012.6
20260901064103 76 247 1.0 3.0 0.00 0.06 0.00 88 1012.6
20260901063604 76 247 1.0 3.0 0.00 0.06 0.00 88 1012.6
20260901063106 76 244 1.0 2.0 0.00 0.06 0.00 88 1012.6
20260901062605 76 244 1.0 3.0 0.00 0.06 0.00 88 1012.6
20260901062105 76 244 1.0 2.0 0.00 0.06 0.00 88 1012.7
20260901061605 76 244 2.0 3.0 0.00 0.06 0.00 88 1012.7
20260901060605 76 247 2.0 5.0 0.00 0.06 0.00 88 1012.9
20260901060104 76 244 1.0 3.0 0.00 0.06 0.00 88 1012.8
20260901055604 76 244 0.0 2.0 0.00 0.06 0.00 88 1012.9
20260901055105 76 259 1.0 3.0 0.00 0.06 0.00 88 1012.9
20260901054605 76 186 2.0 5.0 0.00 0.06 0.00 88 1012.9
20260901053604 76 253 1.0 5.0 0.00 0.06 0.00 88 1013.0
20260901053104 76 246 1.0 3.0 0.00 0.06 0.00 87 1013.1
20260901052605 76 246 1.0 3.0 0.00 0.06 0.00 87 1013.1
20260901052104 76 153 0.0 3.0 0.00 0.06 0.00 87 1013.0
20260901051607 76 223 1.0 3.0 0.00 0.06 0.00 87 1013.0
20260901051104 76 236 2.0 3.0 0.00 0.06 0.00 87 1013.1
20260901050604 76 244 1.0 2.0 0.00 0.06 0.00 87 1012.9
20260901050104 76 244 1.0 3.0 0.00 0.06 0.00 87 1012.8
20260901045604 76 241 2.0 3.0 0.00 0.06 0.00 87 1012.9
20260901045105 76 181 1.0 5.0 0.00 0.06 0.00 87 1012.8
20260901044105 76 237 1.0 5.0 0.00 0.06 0.00 87 1012.7
20260901043605 76 225 2.0 3.0 0.00 0.06 0.00 87 1012.6
20260901043105 76 216 1.0 2.0 0.00 0.06 0.00 86 1012.6
20260901042605 76 201 2.0 3.0 0.00 0.06 0.00 86 1012.6
20260901042104 76 261 2.0 3.0 0.00 0.06 0.00 86 1012.7
20260901041604 76 218 1.0 2.0 0.00 0.06 0.00 87 1012.7
20260901041104 76 220 2.0 5.0 0.00 0.06 0.00 87 1012.9
20260901040604 76 245 2.0 5.0 0.00 0.06 0.00 87 1012.8
20260901040104 76 248 1.0 3.0 0.00 0.06 0.00 87 1013.1
20260901035604 76 232 3.0 5.0 0.00 0.06 0.06 87 1013.1
20260901035105 76 228 1.0 7.0 0.00 0.06 0.06 87 1013.1
20260901034605 76 243 2.0 3.0 0.00 0.06 0.06 87 1013.1
20260901034105 76 246 1.0 3.0 0.00 0.06 0.06 87 1013.0
20260901033605 75 245 1.0 6.0 0.00 0.06 0.06 87 1012.9
20260901033105 75 243 1.0 5.0 0.00 0.06 0.06 87 1013.0